[[{"header":{"parameterUnit":"m.s-1","parameterCategory":1,"la1":30.2991,"la2":30.254,"lo1":-89.0895,"lo2":-89.0444,"dy":0.0017,"dx":0.0017,"nx":28,"ny":28,"refTime":"2024-05-18T03:00:00:Z","depth":0,"parameterNumber":2,"parameterNumberName":"U-component_of_WINDS"},"data":[0,0,0,0,0,0,0,0,0,0,0,0,0,0,0,0,0,0,0,0,0,0,0,0,0,0,0,0,0,0,0,0,0,0,0,0,0,0,0,0,0,0,0,0,0,0,0,0,0,0,0,0,0,0,0,0,0,0,-1.8032,-1.8033,0,-1.8072,-1.8073,-1.8073,-1.8062,-1.8061,-1.8061,-1.806,-1.8104,-1.8106,-1.8108,0,0,0,0,0,0,0,0,0,0,0,0,0,-1.7949,-1.7951,-1.8032,-1.8033,-1.8033,-1.8072,-1.8073,-1.8073,-1.8062,-1.8061,-1.806,-1.8059,-1.8103,-1.8105,-1.8108,0,0,0,0,0,0,0,0,0,0,0,0,0,-1.7987,-1.7951,-1.8032,-1.8032,-1.8033,-1.8072,-1.8073,-1.8074,-1.8063,-1.8061,-1.806,-1.8059,-1.8102,-1.8105,-1.8108,-1.8151,0,0,-1.8117,-1.8118,0,0,0,0,0,0,0,0,-1.7985,-1.799,-1.8032,-1.8032,-1.8033,-1.8061,-1.806,-1.81,-1.8063,-1.8051,-1.806,-1.8058,-1.8091,-1.8094,-1.8105,-1.8153,-1.8155,-1.8117,-1.8119,-1.812,-1.8121,0,0,0,0,0,0,0,-1.7982,-1.7988,-1.8048,-1.8032,-1.8033,-1.8032,-1.8036,-1.8067,-1.8078,-1.8052,-1.8051,-1.8056,-1.8091,-1.8102,-1.8106,-1.8155,-1.8117,-1.812,-1.8122,-1.8123,-1.8242,-1.8243,0,0,0,0,0,0,-1.7979,-1.7986,-1.8047,-1.8049,-1.8005,-1.8034,-1.8038,-1.8053,-1.8077,-1.808,-1.8057,-1.8056,-1.8098,-1.8102,-1.8107,-1.8159,-1.812,-1.8123,-1.8125,-1.824,-1.8242,-1.8244,0,0,0,0,0,0,-1.7977,-1.7984,-1.8045,-1.8018,-1.8025,-1.8037,-1.8053,-1.8055,-1.8066,-1.8081,-1.8083,-1.8067,-1.8097,-1.8103,-1.814,-1.816,-1.8124,-1.8127,-1.8239,-1.8241,-1.8243,-1.8263,0,0,0,0,0,0,-1.7975,-1.7984,-1.7999,-1.8018,-1.8027,-1.8076,-1.8055,-1.8056,-1.8071,-1.8069,-1.809,-1.8093,-1.8096,-1.8136,-1.8143,-1.8164,-1.8129,-1.8237,-1.824,-1.8242,-1.826,-1.8265,-1.8269,0,0,0,0,0,-1.7972,-1.8003,-1.8,-1.8007,-1.8046,-1.8077,-1.8082,-1.8085,-1.8072,-1.8088,-1.8098,-1.8092,-1.8157,-1.814,-1.8148,-1.817,-1.8236,-1.8239,-1.8242,-1.8258,-1.8264,-1.8269,0,0,0,0,0,0,-1.7987,-1.8006,-1.8002,-1.804,-1.8057,-1.8075,-1.8095,-1.8091,-1.8113,-1.811,-1.8114,-1.8119,-1.8157,-1.8167,-1.8147,-1.8213,-1.8195,-1.82,-1.8204,-1.821,-1.8215,-1.8211,-1.8132,0,0,0,0,0,-1.7995,-1.8018,-1.8033,-1.8066,-1.8074,-1.8084,-1.8097,-1.8098,-1.8116,-1.8124,-1.8136,-1.8155,-1.818,-1.8196,-1.8219,-1.8262,-1.8267,-1.8282,-1.8286,-1.829,-1.8294,-1.8318,-1.8325,-1.8254,-1.8254,-1.8254,0,0,-1.8011,-1.8024,-1.8039,-1.8069,-1.8082,-1.8107,-1.809,-1.8116,-1.8135,-1.8128,-1.8163,-1.8173,-1.8195,-1.8235,-1.8253,-1.8244,-1.8315,-1.8294,-1.8297,-1.8299,-1.8322,-1.8329,-1.8334,-1.8256,-1.8256,-1.8256,0,0,-1.8053,-1.8065,-1.8094,-1.8107,-1.8127,-1.8134,-1.8141,-1.816,-1.8166,-1.8201,-1.8197,-1.822,-1.8262,-1.8278,-1.8291,-1.8341,-1.8336,-1.8349,-1.8373,-1.8396,-1.8402,-1.8407,-1.8424,-1.8431,-1.8353,-1.8353,-1.8353,0,-1.8071,-1.8107,-1.8109,-1.8136,-1.815,-1.8145,-1.8175,-1.8188,-1.8215,-1.8226,-1.8216,-1.8269,-1.8283,-1.8327,-1.834,-1.8351,-1.836,-1.8346,-1.84,-1.8405,-1.841,-1.8427,-1.8434,-1.8355,-1.8354,-1.8354,-1.8354,0,-1.8128,-1.8153,-1.8174,-1.8199,-1.8216,-1.8244,-1.8252,-1.8269,-1.8269,-1.8277,-1.8314,-1.8331,-1.8358,-1.8369,-1.837,-1.8414,-1.8408,-1.8399,-1.8381,-1.8418,-1.8434,-1.8441,-1.8357,-1.8356,-1.8356,-1.8355,0,0,-1.8179,-1.8206,-1.8214,-1.8225,-1.8248,-1.8268,-1.8297,-1.8323,-1.8337,-1.8357,-1.8382,-1.8419,-1.8411,-1.8427,-1.843,-1.845,-1.8489,-1.8439,-1.844,-1.8448,-1.8539,-1.8544,-1.8552,-1.8487,-1.8488,-1.8489,-1.8537,0,-1.8222,-1.8271,-1.8275,-1.832,-1.8344,-1.834,-1.8366,-1.8383,-1.8392,-1.8414,-1.8424,-1.845,-1.8439,-1.8448,-1.8468,-1.848,-1.8507,-1.8477,-1.851,-1.8511,-1.8504,-1.856,-1.8566,-1.861,-1.8543,-1.8544,-1.8545,0,-1.8279,-1.8299,-1.8346,-1.8366,-1.8376,-1.8399,-1.8423,-1.8445,-1.8465,-1.847,-1.8488,-1.8488,-1.852,-1.8501,-1.8545,-1.8524,-1.8539,-1.8547,-1.8549,-1.8551,-1.8529,-1.8563,-1.8624,-1.863,-1.8555,-1.8554,-1.8554,0,-1.8311,-1.8351,-1.8384,-1.8394,-1.8418,-1.8434,-1.8445,-1.8464,-1.848,-1.8502,-1.8513,-1.8539,-1.8553,-1.8574,-1.8582,-1.8568,-1.8626,-1.8608,-1.8631,-1.8631,-1.8642,-1.8641,-1.8705,-1.8653,-1.8653,-1.8653,-1.8653,0,-1.8358,-1.8387,-1.8398,-1.8419,-1.8451,-1.8457,-1.8489,-1.85,-1.8517,-1.8541,-1.854,-1.8562,-1.8572,-1.8596,-1.8603,-1.8639,-1.8645,-1.8651,-1.8652,-1.865,-1.8649,-1.8659,-1.8656,-1.8655,-1.8654,-1.8654,-1.8654,0,-1.8399,-1.8407,-1.8443,-1.8463,-1.8469,-1.8493,-1.851,-1.8531,-1.854,-1.857,-1.8577,-1.8592,-1.862,-1.8631,-1.8666,-1.8671,-1.8711,-1.8711,-1.8704,-1.8704,-1.8726,-1.8724,-1.8798,-1.8808,-1.875,-1.8751,-1.8751,0,-1.8428,-1.845,-1.8472,-1.8487,-1.8499,-1.8523,-1.8539,-1.8546,-1.8563,-1.8589,-1.8607,-1.8635,-1.8658,-1.8704,-1.8718,-1.8746,-1.8745,-1.877,-1.8749,-1.8747,-1.8745,-1.8743,-1.8746,-1.8773,-1.8773,-1.8774,-1.8774,0,-1.8479,-1.8482,-1.8504,-1.8529,-1.8547,-1.8567,-1.8586,-1.8599,-1.861,-1.8629,-1.8658,-1.8675,-1.8711,-1.874,-1.8768,-1.8781,-1.878,-1.8781,-1.8788,-1.8785,-1.878,-1.8783,-1.8713,-1.8779,-1.8778,-1.8778,-1.8778,-1.8778,-1.8514,-1.8534,-1.8553,-1.8578,-1.8593,-1.8611,-1.8631,-1.8643,-1.8667,-1.8695,-1.8699,-1.873,-1.8752,-1.8789,-1.8804,-1.8829,-1.8823,-1.8833,-1.8835,-1.8837,-1.8838,-1.8777,-1.8835,-1.8834,-1.8834,-1.8834,-1.8834,0,-1.8565,-1.8577,-1.86,-1.8626,-1.8647,-1.8643,-1.8665,-1.8682,-1.8709,-1.8729,-1.8752,-1.8785,-1.8813,-1.8831,-1.8859,-1.8876,-1.8877,-1.8883,-1.8882,-1.8885,-1.8843,-1.8834,-1.8883,-1.8883,-1.8883,-1.8883,-1.8883,-1.8883,-1.8593,-1.8626,-1.8632,-1.8673,-1.8685,-1.8715,-1.8727,-1.8745,-1.876,-1.8798,-1.8821,-1.8831,-1.8851,-1.8881,-1.8907,-1.8911,-1.8922,-1.8929,-1.8933,-1.8893,-1.8888,-1.8883,-1.8875,-1.8931,-1.8932,-1.8973,-1.8973,-1.8974]},{"header":{"parameterUnit":"m.s-1","parameterCategory":1,"la1":30.2991,"la2":30.254,"lo1":-89.0895,"lo2":-89.0444,"dy":0.0017,"dx":0.0017,"nx":28,"ny":28,"refTime":"2024-05-18T03:00:00:Z","depth":0,"parameterNumber":3,"parameterNumberName":"V-component_of_WINDS"},"data":[0,0,0,0,0,0,0,0,0,0,0,0,0,0,0,0,0,0,0,0,0,0,0,0,0,0,0,0,0,0,0,0,0,0,0,0,0,0,0,0,0,0,0,0,0,0,0,0,0,0,0,0,0,0,0,0,0,0,3.713,3.7131,0,3.7221,3.7222,3.7223,3.724,3.724,3.7239,3.7238,3.7327,3.733,3.7333,0,0,0,0,0,0,0,0,0,0,0,0,0,3.6969,3.6972,3.713,3.7132,3.7133,3.7221,3.7222,3.7223,3.724,3.7239,3.7239,3.7238,3.7326,3.733,3.7334,0,0,0,0,0,0,0,0,0,0,0,0,0,3.7047,3.6973,3.713,3.7152,3.7155,3.7221,3.7222,3.7224,3.7241,3.7239,3.7238,3.7237,3.7325,3.733,3.7334,3.7384,0,0,3.7348,3.735,0,0,0,0,0,0,0,0,3.7043,3.7053,3.7148,3.7151,3.7154,3.7218,3.7198,3.7277,3.7241,3.7208,3.7238,3.7237,3.7292,3.7299,3.7318,3.7388,3.7392,3.7349,3.7351,3.7353,3.7355,0,0,0,0,0,0,0,3.7037,3.7049,3.7166,3.7149,3.7153,3.7156,3.7166,3.7213,3.7255,3.7211,3.7212,3.7223,3.7293,3.7314,3.732,3.7393,3.7348,3.7353,3.7355,3.7357,3.7509,3.751,0,0,0,0,0,0,3.7029,3.7045,3.7163,3.7169,3.7095,3.716,3.7171,3.7199,3.7254,3.7262,3.7224,3.7223,3.7307,3.7315,3.7324,3.7386,3.7353,3.7358,3.736,3.7507,3.7509,3.751,0,0,0,0,0,0,3.7025,3.7039,3.716,3.7107,3.7123,3.7164,3.7195,3.7201,3.7222,3.7264,3.7271,3.7237,3.7306,3.7317,3.7369,3.739,3.736,3.7364,3.7506,3.7508,3.751,3.7511,0,0,0,0,0,0,3.702,3.7038,3.7058,3.7108,3.7126,3.7205,3.7196,3.7204,3.723,3.723,3.7279,3.7286,3.7306,3.7362,3.7374,3.7395,3.7367,3.7504,3.7507,3.7509,3.751,3.7513,3.7516,0,0,0,0,0,3.7014,3.7054,3.7059,3.7073,3.7152,3.7206,3.7216,3.724,3.7231,3.7252,3.7279,3.7284,3.7385,3.7367,3.738,3.7404,3.7503,3.7506,3.7509,3.7508,3.7512,3.7516,0,0,0,0,0,0,3.7004,3.7061,3.7067,3.7123,3.716,3.7209,3.7235,3.7243,3.7282,3.728,3.7307,3.7318,3.7368,3.7391,3.737,3.7455,3.7443,3.7449,3.7439,3.7443,3.7446,3.744,3.7371,0,0,0,0,0,3.7008,3.7048,3.7095,3.7141,3.7159,3.7194,3.7218,3.7233,3.7271,3.7287,3.7317,3.7353,3.7393,3.7419,3.7458,3.7513,3.7523,3.7535,3.7538,3.754,3.7545,3.7576,3.7582,3.752,3.752,3.752,0,0,3.7017,3.7053,3.7077,3.714,3.717,3.721,3.7206,3.7249,3.7279,3.7293,3.7344,3.7368,3.741,3.7463,3.7488,3.7484,3.7565,3.7544,3.7546,3.7549,3.758,3.7586,3.7591,3.7522,3.7521,3.7521,0,0,3.7055,3.7086,3.7128,3.7159,3.7204,3.7227,3.7237,3.7285,3.7302,3.7354,3.7365,3.74,3.7469,3.7498,3.7522,3.7571,3.7578,3.7583,3.76,3.763,3.7634,3.7639,3.7657,3.7663,3.7587,3.7587,3.7587,0,3.7061,3.7123,3.7148,3.7191,3.7218,3.7233,3.7276,3.7303,3.7359,3.7377,3.7371,3.7457,3.7486,3.7547,3.756,3.7578,3.759,3.7578,3.7632,3.7637,3.7641,3.7659,3.7665,3.7588,3.7588,3.7588,3.7588,0,3.7128,3.7171,3.7199,3.7254,3.7284,3.7326,3.7357,3.7384,3.7396,3.7419,3.7472,3.7508,3.7554,3.757,3.7581,3.7632,3.7628,3.7627,3.7616,3.7647,3.7664,3.7671,3.7588,3.7588,3.7588,3.7588,0,0,3.7163,3.7231,3.7241,3.7267,3.7318,3.7351,3.7393,3.744,3.7464,3.7501,3.7537,3.7594,3.7594,3.7621,3.7636,3.7662,3.7699,3.7657,3.7659,3.7664,3.7758,3.776,3.7767,3.7703,3.7705,3.7706,3.7755,0,3.7208,3.7286,3.7309,3.7374,3.7414,3.7429,3.7465,3.75,3.7523,3.7559,3.7583,3.7624,3.7619,3.7636,3.7662,3.7689,3.7718,3.7686,3.7737,3.7738,3.7727,3.7776,3.7778,3.7822,3.7761,3.7762,3.7763,0,3.7271,3.7311,3.738,3.7427,3.7445,3.7478,3.7523,3.7557,3.7597,3.7611,3.7642,3.7655,3.7699,3.7685,3.7745,3.7723,3.7745,3.7761,3.7763,3.7769,3.7753,3.7784,3.7837,3.7844,3.7774,3.7773,3.7772,0,3.7291,3.7362,3.7412,3.7433,3.7489,3.7512,3.7536,3.7575,3.7601,3.764,3.7658,3.77,3.7724,3.7756,3.778,3.7768,3.7839,3.7827,3.7852,3.7851,3.7867,3.7866,3.7925,3.788,3.7879,3.7879,3.7879,0,3.7339,3.7381,3.7422,3.7454,3.7501,3.7527,3.7572,3.7597,3.7631,3.7667,3.7681,3.7714,3.7743,3.7779,3.7798,3.7846,3.7856,3.7868,3.7873,3.7868,3.7866,3.7883,3.7881,3.7881,3.7881,3.788,3.788,0,3.737,3.7399,3.7455,3.7504,3.7517,3.7549,3.759,3.7621,3.7643,3.7688,3.77,3.7736,3.7779,3.7806,3.7861,3.7874,3.7926,3.7929,3.7914,3.7916,3.794,3.7938,3.8013,3.8024,3.797,3.7971,3.7971,0,3.7399,3.7432,3.7484,3.751,3.7534,3.7575,3.7603,3.7629,3.7657,3.7705,3.7729,3.7774,3.7812,3.788,3.7911,3.7953,3.7957,3.7981,3.7964,3.7957,3.7959,3.7957,3.796,3.7984,3.7984,3.7984,3.7985,0,3.7449,3.7462,3.7502,3.7547,3.758,3.7617,3.7653,3.7673,3.7705,3.7735,3.7781,3.781,3.7867,3.7911,3.7956,3.7979,3.7987,3.799,3.7998,3.7994,3.7984,3.799,3.7922,3.7988,3.7988,3.7988,3.7987,3.7987,3.7481,3.7511,3.7553,3.7597,3.7627,3.766,3.7692,3.7719,3.7758,3.7807,3.7819,3.7867,3.7905,3.7966,3.7991,3.8028,3.8024,3.8036,3.8039,3.8042,3.8043,3.7977,3.8036,3.8036,3.8036,3.8036,3.8036,0,3.7533,3.756,3.76,3.7651,3.7686,3.7691,3.7731,3.7759,3.7802,3.7837,3.7874,3.7926,3.7969,3.8003,3.8046,3.807,3.8074,3.808,3.8079,3.8085,3.8043,3.8032,3.8076,3.8076,3.8076,3.8076,3.8076,3.8076,3.7564,3.7615,3.7633,3.7699,3.7726,3.7774,3.7796,3.7827,3.7856,3.7914,3.795,3.7972,3.8006,3.8053,3.8092,3.8101,3.8116,3.8122,3.8131,3.8092,3.8087,3.8083,3.8073,3.8125,3.8125,3.817,3.817,3.817]}]]